www.pogodaiklimat.ru
Время
и дата
15:51 12.04
16:51 12.04
17:51 12.04
18:51 12.04
18:58 12.04
19:51 12.04
20:51 12.04
21:51 12.04
22:51 12.04
23:51 12.04
00:51 13.04
01:51 13.04
02:51 13.04
03:51 13.04
04:51 13.04
05:51 13.04
06:51 13.04
07:51 13.04
08:51 13.04
09:51 13.04
10:51 13.04
11:51 13.04
12:51 13.04
13:51 13.04
14:51 13.04
15:51 13.04
16:51 13.04
17:51 13.04
18:51 13.04
19:51 13.04
20:51 13.04
21:51 13.04
22:51 13.04
23:51 13.04
00:51 14.04
01:51 14.04
02:51 14.04
03:51 14.04
04:51 14.04
05:51 14.04
06:51 14.04
07:51 14.04
08:51 14.04
09:51 14.04
10:51 14.04
11:51 14.04
12:51 14.04
13:51 14.04
Ветер
(напр.,м/с)
Видим. Явления Облачность Т
(С)
Тd
(С)
f
(%)
Тe
(С)
Тes
(С)
Комфортность P
(гПа)
Po
(гПа)
Тmin
(С)
Tmax
(С)
R
(мм)
R24
(мм)
S
(см)
З 8
{13}
16 км 10/10 570 м +10.6 +5.6 71 +7 +7 1009.3 979.7
З 6
{11}
16 км 10/10 600 м +10.6 +5.6 71 +8 +8 1010.3 980.7
ЮЗ 8
{12}
16 км 8/5 810 m
[Ac]
+11.1 +6.1 71 +8 +8 1010.4 980.7
ЮЗ 7
{12}
13 км слабый дождь 10/8 510 m
[Ac Ns]
+10.6 +6.7 77 +7 +7 1011.0 981.3 +10.0 +11.1
ЮЗ 5
{12}
14 км слабый дождь 10/8 600 m
[Ac Ns]
+10.0 +7.2 83 +7 +7 981.6
З 5
{9}
16 км 5/0 2100 m
[Ac]
+10.6 +5.6 71 +8 +8 1012.3 982.6
З 5 16 км ясно +10.0 +5.6 74 +7 +7 1013.9 983.9
З 4 16 км 10/0 2250 m
[Ac]
+10.6 +5.0 68 +8 +8 1014.8 984.9 0.3
ЮЗ 4 16 км 10/0 2250 m
[Ac]
+10.0 +5.6 74 +7 +7 1015.2 985.3
З 3 16 км слабый дождь 10/0 3000 m
[Ac As]
+9.4 +5.0 74 +7 +7 1015.5 985.6
З 4 16 км 10/5 1800 m
[Ac]
+9.4 +5.0 74 +7 +7 1015.5 985.6 +9.4 +10.6 0.8
З 3 16 км 10/0 2400 m
[Ac]
+10.0 +4.4 68 +8 +8 1015.5 985.6
З 4 16 км 8/0 2700 m
[Ac]
+9.4 +4.4 71 +7 +7 1016.0 985.9
З 4 16 км 10/0 2250 m
[Ac]
+9.4 +4.4 71 +7 +7 1016.6 986.6
З 5
{8}
16 км 10/0 2100 m
[Ac]
+9.4 +3.9 68 +6 +6 1017.4 987.2
ЮЗ 4 16 км 2/2 1950 м +8.3 +3.9 74 +5 +5 1018.3 988.2
ЮЗ 3 16 км ясно +8.9 +3.9 71 +7 +7 1019.0 988.9 +8.3 +10.0 1.5
З 5 16 км 2/0 2100 m
[Ac]
+11.1 +3.9 61 +9 +9 1019.6 989.5
СЗ 4 16 км ясно +12.8 +4.4 57 +11 +14 1020.2 990.2
З 4
{9}
16 км ясно +14.4 +3.9 49 +13 +18 1020.4 990.5
СЗ 5
{12}
16 км 2/2 1650 м +15.6 +2.8 42 +15 +19 1020.5 990.5
З 5
{10}
16 км 5/5 1800 м +16.7 +2.2 38 +16 +20 1020.2 990.2
З 5
{10}
16 км ясно +17.8 +1.7 34 +17 +26 1019.5 989.5 +8.9 +18.3
СЗ 5
{11}
16 км ясно +18.9 +1.1 30 +19 +28 1019.1 989.2
З 5
{10}
16 км ясно +19.4 +2.2 32 +19 +27 1018.4 988.5
З 5
{10}
16 км ясно +20.0 +1.7 30 +20 +26 1018.0 988.2
З 4
{9}
16 км ясно +20.0 +0.6 27 +20 +25 1017.9 988.2
З 4 16 км ясно +20.0 0.0 26 +20 +23 1018.0 988.2
З 4 16 км ясно +18.3 +0.6 30 +18 +19 1017.9 988.2 +17.8 +20.0
ЮЗ 3 16 км ясно +17.2 +1.1 34 +17 +17 1018.1 988.2
Ю 2 16 км ясно +16.1 +1.1 36 +16 +16 1018.3 988.5
ЮЗ 3 16 км ясно +15.0 +1.1 39 +15 +15 1018.0 988.2
Ю 2 16 км ясно +12.8 +2.2 48 +12 +12 1017.7 987.9
Ю 2 16 км ясно +12.2 +2.2 50 +12 +12 1017.5 987.6
Ю 3 16 км ясно +11.7 +1.7 50 +10 +10 1017.2 987.6 +11.7 +18.3
Ю 3 16 км ясно +11.1 +1.7 52 +10 +10 1016.4 986.6
Ю 3 16 км ясно +11.7 +1.1 48 +10 +10 1015.7 986.2
Ю 4 16 км ясно +11.7 +1.1 48 +10 +10 1015.4 985.9
Ю 5 16 км ясно +12.2 +1.1 47 +10 +10 1015.2 985.6
Ю 5 16 км ясно +12.8 +1.1 45 +11 +11 1015.2 985.6
Ю 5 16 км ясно +13.9 +2.2 45 +12 +12 1015.2 985.6 +11.1 +13.9
Ю 5
{8}
16 км ясно +16.7 +3.9 42 +16 +16 1015.0 985.6
ЮЗ 4
{9}
16 км ясно +19.4 +5.6 40 +20 +22 1014.8 985.3
ЮЗ 4
{11}
16 км ясно +23.3 +7.2 35 +24 +29 комфорт 1014.3 984.9
ЮЗ 6
{12}
16 км ясно +24.4 +6.7 32 +24 +29 комфорт 1013.9 984.6
З 8
{14}
16 км ясно +25.6 +6.7 30 +25 +28 комфорт 1013.0 983.6
ЮЗ 8
{13}
16 км ясно +26.1 +6.7 29 +26 +29 жарко 1012.1 982.6 +13.9 +26.7
ЮЗ 8
{14}
16 км ясно +28.3 +5.6 24 +27 +30 жарко 1011.3 982.0
Местоположение метеостанции Tri-State Airport: широта 38.3650 долгота -82.5550 высота над уровнем моря 251 м.
В архиве по умолчанию представлена погода в Хантингтоне за последние 1-2 суток. Обновление информации о фактической погоде в базе происходит ежечасно! Архивные данные за месяц целиком и за предыдущие месяцы Вы можете получить, выбрав интересующий диапазон дат из раскрывающегося списка и нажав кнопку "Ввод!".
Внимание! Архив погоды МЕТАР в базе сайта по станциям, не включенным в климатический монитор, хранится не более 60 дней. Нет смысла пытаться выбрать более раннюю дату.
*Определитесь, кто Вы:
Внимание! Время в таблицах - местное (без учета летнего времени). Для получения всемирного времени необходимо вычесть поправку, которая равна -5 ч.
Смотрите также архив погоды в соседних городах и на ближайших метеорологических станциях:
Партнеры нашего сайта:      
Пояснения к столбцам:
  • Ветер - указаны скорость ветра в м/с - средняя за 10 мин, порывы в срок и между сроками (в фигурных скобках) и направление, откуда дует ветер: С - северный,
  • СВ - северо-восточный, В - восточный, ЮВ - юго-восточный, Ю - южный, ЮЗ - юго-западный, З - западный, СЗ - северо-западный.
  • Видимость - горизонтальная дальность видимости в метрах или километрах. При видимости от 1 до 10 км при отсутствии осадков обычно наблюдается дымка, при ухудшении видимости до 1 км и менее - туман. В сухую погоду видимость может ухудшаться дымом, пылью или мглою.
  • Явления - указаны атмосферные явления, наблюдавшиеся в срок или в последний час перед сроком; фигурными скобками обозначены явления, наблюдавшиеся между сроками (за 1-3 часа до срока); квадратными скобками обозначены град или гололедные отложения с указанием их диаметра в мм.
  • Облачность - указаны через наклонную черту общая и нижняя облачность в баллах и высота нижней границы облаков в метрах; квадратными скобками обозначены формы облаков: Ci - перистые, Cs - перисто-слоистые, Cc - перисто-кучевые, Ac - высококучевые, As - высокослоистые, Sc - слоисто-кучевые, Ns - слоисто-дождевые, Cu - кучевые, Cb - кучево-дождевые. Подробнее классификацию облаков см. в Атласе облаков (PDF).
  • T - Температура воздуха - температура, измеренная на высоте 2 м над землей.
  • Td - Температура точки росы - температура, при понижении до которой содержащийся в воздухе водяной пар достигнет насыщения.
  • f - Относительная влажность воздуха - влажноcть воздуха, измеренная на высоте 2 м над землей.
  • Te - Эффективная температура - температура, которую ощущает одетый по сезону человек в тени. Характеристика душности погоды. При расчете учитывается влияние влажности воздуха и скорости ветра на теплоощущения человека.
  • Tes - Эффективная температура на солнце - температура, которую ощущает человек, с поправкой на солнечный нагрев. Характеристика знойности погоды. Зависит от высоты солнца над горизонтом, облачности и скорости ветра. Ночью, в пасмурную погоду, а также при ветре 12 м/с и более поправка равна нулю.
  • P - Атмосферное давление - приведенное к уровню моря атмосферное давление.
  • Po - Атмосферное давление - измеренное на уровне метеостанции атмосферное давление.
  • Tmin - Минимальная температура - минимум температуры воздуха на высоте 2 м над землей.
  • Tmax - Максимальная температура - максимум температуры воздуха на высоте 2 м над землей.
  • R - Количество осадков - Количество выпавших осадков за период времени, мм. При наведении курсора мыши на число - период времени, за который выпало указанное количество осадков.
  • R24 - Количество осадков - Количество выпавших осадков за 24 часа, мм.
  • S - Снежный покров - Высота снежного покрова, см. При наведении курсора мыши на число - состояние снежного покрова и степень покрытия местности в баллах.